RH
92 92 92 91 88 86 88 88 93 97 98 100 99 99 95 92 90 84 87 89 88 86 85 88 91 92 91 92 89 86 87 90 92 92 92 86 83 84 85 85 85 84 82 78 76 77 79 79 78 79 80 83 86 85 81 77 69 57 46 38 32 27 22 20 19 19 19 19 19 21 20 19 19 20 19 17 15 13 13 13 15 16 15 14 14 14 13 15 18 22 22 28 31 18 10 8 7
92 89 93 98 91 87 90 90 95 98 98 98 91 90 86 84 85 83 86 87 87 84 83 87 89 88 89 91 91 90 90 92 94 92 87 83 80 80 81 80 78 78 78 77 76 78 80 81 81 81 81 80 82 82 78 70 59 47 38 31 25 23 21 19 19 20 20 20 19 21 21 19 19 21 21 20 17 14 14 13 15 16 15 15 13 14 14 16 18 34 50 59 60 38 16 9 8
92 85 89 96 91 90 96 96 98 98 98 97 88 85 81 79 82 84 86 85 85 86 87 88 88 88 88 90 90 91 90 88 88 86 84 83 81 79 78 75 73 70 69 71 72 75 80 82 81 81 80 76 76 78 73 61 49 39 38 40 33 25 24 23 22 21 23 23 22 24 26 27 25 26 28 25 22 18 16 14 16 16 16 15 14 15 14 20 26 48 75 79 72 51 24 11 12
90 91 90 91 90 91 94 96 98 98 97 98 94 88 83 83 84 85 85 81 79 82 86 86 86 87 86 87 87 88 88 86 84 83 81 80 76 72 68 65 63 60 58 58 59 65 75 80 80 81 78 74 76 78 70 56 51 50 57 68 63 41 27 26 26 29 31 26 26 28 32 45 49 45 42 36 32 27 21 16 17 19 18 16 17 17 16 24 27 48 82 85 75 65 38 15 15
64 83 88 91 95 92 93 96 97 98 91 87 86 81 83 90 89 87 86 82 79 76 77 78 79 82 84 86 85 85 85 84 82 79 77 73 67 61 55 51 50 50 48 46 46 53 65 71 75 78 74 71 72 73 67 64 70 73 79 88 87 71 50 36 31 39 46 40 36 37 41 57 69 66 60 52 45 39 32 22 17 20 20 18 19 21 21 28 39 61 85 89 89 89 65 26 15
31 58 75 84 92 87 89 93 92 94 88 85 85 82 89 93 91 89 85 83 81 76 74 75 78 82 87 87 85 85 83 80 77 73 69 64 57 51 44 41 40 41 42 41 39 43 53 61 68 70 70 71 71 69 62 70 86 89 94 96 96 92 82 64 45 43 49 53 50 49 55 65 73 76 75 72 66 60 54 39 24 21 22 20 19 24 28 36 55 72 80 90 97 95 81 46 21
13 36 54 69 86 85 87 89 85 88 85 85 90 89 92 93 92 89 84 82 80 78 76 76 80 85 89 87 85 83 79 76 72 67 61 53 45 39 37 36 36 37 39 39 38 39 45 55 64 66 67 68 69 67 59 66 78 83 96 100 99 99 97 90 74 56 47 59 65 59 65 72 75 81 85 86 85 81 75 61 44 32 25 23 21 28 40 46 57 72 77 83 90 89 88 68 37
6 19 32 50 73 78 82 83 80 84 81 82 89 92 92 91 91 87 80 76 75 77 78 79 83 88 89 86 82 79 75 72 67 59 50 40 34 31 32 33 35 38 39 40 41 41 45 53 61 65 66 64 62 60 56 62 68 71 87 99 100 97 96 96 91 75 61 69 71 63 68 72 74 83 89 89 92 91 83 77 72 58 36 23 24 33 48 54 59 74 75 68 81 88 89 80 52
5 11 18 35 54 60 64 65 66 70 73 81 87 89 88 87 86 77 66 65 69 73 78 83 86 88 87 83 80 76 72 65 55 45 37 33 31 30 30 33 36 39 41 42 44 46 48 52 58 62 62 61 59 57 53 59 67 68 80 95 96 90 89 93 95 89 81 79 68 60 65 68 71 78 85 85 89 87 81 84 88 84 58 30 26 34 49 58 58 65 65 65 80 84 89 91 63
6 9 13 24 35 42 46 43 50 58 67 78 79 78 78 77 74 63 57 59 64 69 75 80 83 85 83 80 76 70 61 50 40 35 32 31 31 31 31 33 37 41 43 44 45 49 51 52 55 57 58 58 56 55 53 56 67 73 79 86 85 85 88 92 98 96 91 85 69 58 55 60 70 76 79 79 84 82 80 89 89 89 81 55 35 32 48 63 62 60 62 69 80 83 89 97 77
8 9 11 20 25 31 34 31 38 49 63 69 63 63 66 67 61 53 53 57 60 63 69 74 79 80 78 73 63 53 44 38 34 33 31 31 31 30 32 35 40 44 45 44 46 50 54 56 56 55 54 54 52 52 54 55 62 71 73 70 75 86 91 94 100 99 95 87 75 64 54 55 62 74 83 81 81 81 80 89 88 85 91 82 54 39 56 72 70 67 66 66 75 83 84 94 92
12 12 11 18 19 22 26 26 28 33 43 46 45 50 55 57 54 50 52 54 55 57 60 65 68 66 62 56 46 39 35 33 31 30 30 29 29 29 31 35 41 45 46 45 47 52 55 56 55 54 51 50 50 51 54 58 60 64 61 55 71 88 89 96 100 100 100 90 83 77 68 61 59 70 83 81 78 78 76 83 87 80 85 90 72 58 66 71 63 62 68 71 74 81 86 97 99
16 19 17 19 20 22 26 26 27 29 33 35 40 47 49 50 49 50 50 50 50 51 51 51 50 46 42 37 32 31 28 28 28 27 27 27 27 27 29 32 35 39 41 42 45 49 51 52 50 48 47 46 47 51 54 58 58 58 53 44 67 92 92 97 99 99 100 92 90 82 71 68 65 66 69 70 71 76 76 79 87 82 83 88 83 76 70 65 55 56 66 70 73 82 91 98 99
20 25 26 30 30 30 32 32 34 37 35 32 36 42 45 47 45 47 48 47 45 44 42 39 37 33 30 28 27 27 26 26 27 26 26 26 27 28 29 30 32 35 37 39 41 43 44 45 45 43 41 40 41 45 48 51 51 49 47 38 58 95 99 98 99 96 92 88 92 85 73 69 69 70 68 69 69 75 80 84 92 91 91 91 89 83 75 71 61 56 63 63 70 88 96 97 100
23 28 32 38 38 36 36 34 36 34 27 23 27 31 36 39 40 44 45 45 42 39 36 33 31 28 26 26 24 24 24 24 24 23 23 24 25 27 29 30 32 35 36 37 39 40 40 39 38 37 36 36 36 37 38 39 42 42 44 41 57 92 102 99 96 89 86 84 88 88 84 77 75 76 74 73 75 78 85 90 94 94 94 94 92 90 85 82 70 56 55 60 66 80 94 98 99
22 27 34 40 37 36 33 29 27 23 21 22 24 27 30 33 37 40 41 40 38 35 32 28 25 22 20 19 18 18 18 18 18 19 20 21 23 25 28 31 34 35 34 34 35 36 37 36 35 35 35 36 37 38 38 38 41 43 48 53 67 88 97 100 97 92 94 89 82 84 88 88 86 84 78 76 77 79 85 90 91 93 97 96 95 98 96 93 87 69 54 58 63 66 81 97 102
21 25 31 32 28 27 24 22 22 21 22 24 27 31 33 35 37 37 37 34 30 26 21 17 16 16 15 15 14 13 14 15 16 17 19 21 23 26 28 32 34 34 33 32 33 34 35 37 38 39 39 39 40 40 42 44 48 51 51 59 79 93 94 98 100 98 100 96 87 85 89 93 93 89 86 85 82 79 81 86 86 90 96 97 96 99 100 99 98 89 71 61 62 68 73 85 100
20 23 24 21 19 19 20 21 23 23 24 25 27 30 32 35 34 32 29 24 21 18 16 14 14 16 17 17 15 14 15 16 17 18 20 23 26 29 33 37 37 36 36 36 37 38 39 40 41 42 42 41 42 42 43 47 52 57 56 57 77 97 99 99 101 100 101 100 94 90 91 96 97 93 91 92 89 83 80 82 83 85 89 90 91 94 98 100 97 91 88 74 63 69 71 70 84
16 18 17 16 16 18 20 21 22 23 24 25 28 29 30 32 28 24 21 21 22 22 22 22 22 24 26 25 21 18 16 17 20 23 25 28 31 35 40 42 42 42 41 42 41 41 42 43 45 45 44 43 43 43 43 47 50 56 60 59 66 80 91 96 99 99 99 98 98 98 98 99 99 97 95 94 89 84 79 79 80 79 78 76 76 80 85 94 93 83 87 91 80 70 66 63 65
13 14 14 16 18 20 21 22 23 23 23 25 29 30 26 24 21 19 22 25 26 27 28 30 31 32 33 32 28 23 19 18 21 26 31 34 37 41 45 46 45 45 45 44 44 44 45 46 48 48 48 47 46 47 45 46 50 53 59 63 65 69 78 89 94 94 90 88 92 98 100 100 101 100 97 95 92 88 83 78 75 71 67 65 62 64 67 75 83 79 79 92 97 86 73 63 57
12 13 15 17 18 20 21 22 22 22 23 26 33 30 19 17 19 22 26 28 30 31 32 33 35 36 37 37 33 28 24 22 23 27 33 38 42 45 47 48 47 48 48 48 49 49 50 50 52 53 53 52 51 51 50 49 51 54 57 62 68 73 78 87 91 92 93 91 91 94 97 97 97 95 94 95 96 95 94 89 84 77 67 61 58 58 59 62 69 74 75 81 91 95 87 73 62
11 12 13 14 14 17 19 20 22 24 27 30 34 31 20 19 22 25 27 29 32 33 34 36 37 38 39 39 36 32 29 27 26 27 32 38 43 46 48 49 49 51 52 53 55 55 55 55 55 56 56 56 56 56 57 56 56 57 58 59 63 70 76 83 87 89 94 96 97 98 98 96 92 89 88 91 94 94 95 95 92 90 83 73 66 63 61 62 68 76 79 81 84 89 89 83 74
9 9 10 11 12 14 17 20 22 24 26 27 28 26 22 21 21 23 24 26 28 27 30 35 39 42 43 43 40 37 34 31 31 31 34 39 42 47 50 51 53 56 57 57 57 57 56 56 56 56 57 57 57 58 59 61 62 62 61 60 60 63 67 73 79 84 87 91 96 99 99 98 96 94 91 91 95 95 95 97 95 94 93 90 83 77 72 68 73 82 86 84 82 83 87 87 81
7 9 10 12 13 14 16 18 19 20 23 25 25 24 21 19 19 20 21 21 21 20 24 30 39 46 46 45 43 40 38 36 37 38 40 43 47 50 53 55 58 59 59 58 57 56 55 55 55 54 55 55 56 57 59 61 62 64 65 65 64 63 63 64 68 73 79 84 90 94 95 97 100 99 97 95 98 99 98 98 98 97 97 97 92 85 83 79 76 79 81 78 73 74 85 94 92
8 10 12 14 15 17 18 18 18 21 24 26 25 22 19 19 21 21 20 21 21 21 23 29 38 42 41 41 41 41 42 42 43 45 47 50 52 55 57 58 59 59 58 57 56 55 54 54 54 54 54 54 54 55 56 58 60 61 63 64 66 66 67 68 68 69 72 75 78 80 83 87 93 97 98 99 99 99 97 91 91 96 96 97 97 92 89 88 85 80 77 75 71 69 77 91 98
10 11 11 15 19 20 21 20 19 20 20 20 19 18 19 20 21 20 20 20 21 21 23 27 31 32 33 35 40 45 47 48 49 50 52 54 56 58 60 60 60 60 58 57 56 56 56 55 55 55 55 55 54 54 54 55 55 56 57 58 61 63 66 70 73 74 76 77 77 78 78 79 82 88 91 95 97 99 98 91 89 93 94 93 97 100 98 96 94 90 85 82 81 78 75 81 92
10 9 10 14 19 20 20 19 15 13 13 14 15 16 18 19 18 18 19 20 20 22 23 25 27 28 31 35 40 46 50 52 54 55 57 58 59 60 62 61 60 60 59 58 57 57 58 57 57 57 57 57 56 56 55 55 54 54 54 55 56 57 59 62 65 68 71 74 76 78 79 79 77 78 81 83 86 89 93 94 93 95 97 95 95 98 100 100 97 94 94 92 88 84 81 79 84
9 8 10 14 18 20 19 16 12 12 13 14 15 16 17 18 19 19 21 22 24 26 27 28 29 30 33 36 40 47 53 56 58 60 61 62 62 62 63 62 61 61 60 60 60 60 61 61 61 61 60 60 59 58 57 56 55 54 54 53 53 53 54 55 56 58 60 62 64 64 66 68 69 70 70 71 72 74 80 85 88 90 92 93 94 93 94 98 97 94 95 98 95 90 89 86 82
10 10 12 14 17 18 16 14 13 14 15 16 17 17 18 20 20 21 23 25 29 32 33 33 34 35 38 42 46 52 57 60 62 64 65 65 65 64 64 63 63 62 63 63 64 65 65 65 65 65 65 64 63 62 60 59 57 56 55 54 53 52 52 52 52 53 53 54 55 55 54 55 55 57 58 58 60 61 63 67 71 74 77 81 85 85 84 86 90 92 92 93 94 92 92 94 93
12 13 14 14 15 16 16 16 15 16 17 18 19 19 20 21 22 24 26 28 32 34 35 37 41 46 49 52 55 59 63 65 67 68 69 68 67 67 66 66 67 67 68 69 70 70 69 69 69 69 68 67 66 65 63 61 59 57 56 55 54 53 52 52 52 51 51 50 50 51 51 51 51 50 50 50 50 51 51 52 53 55 58 63 68 71 71 72 74 80 87 90 88 88 84 82 92
14 15 16 17 18 18 18 17 17 17 19 20 21 22 23 25 26 28 31 34 36 37 36 40 49 56 60 63 66 67 69 71 72 72 72 71 70 70 70 72 72 73 74 75 76 76 75 74 74 73 73 73 72 70 67 64 60 58 57 57 56 55 54 52 50 47 45 42 41 41 42 44 45 46 47 47 47 47 46 46 45 44 45 46 49 52 54 56 57 57 67 79 79 81 82 70 70
16 18 19 19 21 21 19 19 19 19 21 22 25 26 26 28 30 34 37 38 40 41 42 48 57 64 69 72 74 75 76 76 76 75 74 74 74 75 76 77 77 78 78 80 80 80 80 80 80 80 79 78 76 74 71 68 65 64 61 57 54 51 50 48 46 43 40 37 34 33 32 32 33 35 37 40 42 44 44 44 42 41 40 39 39 39 39 39 40 38 40 50 54 59 71 67 55
18 20 20 20 21 21 20 20 20 21 23 25 27 28 28 29 32 36 39 41 44 48 52 61 69 72 75 78 79 80 80 80 79 78 78 78 79 80 81 81 81 81 81 82 82 81 82 82 82 82 80 79 77 75 74 72 70 67 61 55 50 46 43 41 41 40 39 38 35 32 29 26 25 25 26 29 32 37 39 41 40 40 38 37 36 35 35 32 30 30 28 28 31 34 42 48 45
19 19 20 21 22 21 21 20 21 24 26 28 29 30 32 33 33 36 38 41 47 53 60 70 78 79 80 82 83 83 83 83 83 82 82 83 84 85 86 86 86 86 85 85 85 85 84 84 83 82 82 81 80 78 76 73 70 65 59 55 51 46 42 39 38 38 37 37 37 35 30 24 21 20 19 20 22 26 30 34 36 37 36 35 34 33 32 33 31 29 28 26 25 26 26 27 30
23 22 21 21 22 22 21 23 24 27 30 32 32 33 36 36 33 34 36 38 43 53 64 75 82 83 84 85 85 86 86 86 86 87 88 89 90 90 90 90 89 89 88 88 88 88 87 87 86 84 84 82 81 78 75 72 68 64 60 57 53 48 44 40 37 37 36 35 35 34 31 27 24 21 18 16 17 18 20 24 28 30 32 32 32 32 31 30 30 29 28 28 26 25 26 25 24
23 23 22 23 23 22 24 26 29 32 33 33 33 34 34 33 33 35 35 36 42 53 66 79 85 86 86 87 88 88 88 89 90 91 92 93 93 93 92 91 90 90 89 89 89 89 88 87 86 83 81 78 74 71 68 66 62 59 57 53 50 47 45 41 38 37 36 35 34 34 34 31 27 21 17 15 13 13 13 15 18 20 23 26 28 30 31 30 29 28 27 26 26 26 27 27 27
22 23 24 24 23 25 28 30 32 34 34 32 33 33 33 34 36 37 35 37 45 57 70 80 85 87 89 89 89 90 90 91 93 94 95 94 93 92 91 90 90 89 89 90 88 87 84 82 79 76 73 70 65 62 59 56 52 48 46 44 42 41 41 40 39 38 37 37 36 35 34 31 25 18 13 10 8 7 8 9 11 12 14 16 20 22 25 27 27 27 26 24 23 24 26 28 28
24 25 24 24 26 28 32 34 34 34 35 34 31 33 35 36 37 35 35 41 52 64 75 82 85 88 90 90 90 91 92 94 95 96 95 94 92 92 92 91 90 89 87 85 81 77 73 69 66 63 58 55 51 49 46 42 40 38 36 32 29 28 28 30 31 32 33 33 32 31 29 25 19 12 7 4 4 4 4 5 6 7 8 8 10 13 15 18 21 22 23 22 21 20 22 25 27
26 26 26 27 29 30 31 33 33 34 37 34 33 38 38 35 35 36 39 46 57 69 76 84 88 89 90 90 91 92 94 96 96 95 94 94 94 92 90 88 84 81 77 73 68 62 56 50 44 39 36 33 32 30 28 25 25 25 24 22 19 17 17 18 18 19 20 21 21 20 18 15 10 6 3 3 3 3 3 4 4 4 5 5 5 6 7 9 10 13 14 16 16 15 15 19 22
28 27 28 30 31 34 34 33 33 33 35 36 38 41 36 34 36 38 43 49 58 70 79 87 90 91 91 90 92 95 96 97 96 95 95 93 90 86 82 78 74 69 64 57 51 44 37 31 25 20 19 19 18 17 16 15 15 14 14 13 12 10 10 10 10 11 12 11 11 10 8 6 4 3 3 3 3 3 3 3 3 3 3 4 4 4 4 5 5 6 7 8 9 10 10 11 13
29 28 31 33 34 36 35 36 37 33 33 36 39 40 34 34 40 41 45 52 61 73 82 89 91 91 91 91 94 96 96 97 95 92 90 85 80 75 68 61 55 49 43 37 33 28 22 17 15 13 14 15 15 16 15 14 13 13 13 12 11 9 8 7 6 6 7 6 6 5 4 3 3 3 3 3 3 3 3 3 3 3 3 3 3 3 3 3 4 4 4 5 5 5 6 6 6
30 30 32 35 36 35 33 38 41 37 38 37 39 52 48 37 41 44 45 52 62 74 83 89 91 90 91 92 95 97 96 94 90 85 81 73 65 58 52 47 44 38 34 31 26 20 17 15 17 18 17 16 16 16 17 16 15 15 16 15 14 13 11 8 7 6 5 5 4 3 3 3 3 4 3 4 4 3 3 3 4 3 3 4 4 5 5 4 4 4 4 5 4 4 4 4 4
31 31 34 36 35 33 33 39 43 42 44 39 39 56 57 43 43 47 48 56 64 72 82 89 90 90 91 93 95 95 92 87 81 75 65 57 54 54 52 48 44 38 32 28 23 20 21 23 24 22 18 16 17 18 17 17 17 17 17 16 16 16 14 11 9 9 8 6 5 4 4 4 4 4 4 4 4 4 4 4 5 6 7 8 9 9 8 7 7 7 7 7 6 6 6 5 4
33 33 35 35 33 33 34 40 44 41 39 37 36 47 53 48 47 47 51 61 69 75 83 87 87 88 90 92 93 89 84 77 68 59 52 54 59 60 55 46 38 33 31 30 31 33 35 35 32 28 25 24 23 21 19 18 18 18 19 18 17 16 15 13 10 10 9 8 7 5 5 4 4 4 5 5 5 4 5 6 9 16 20 21 20 18 14 13 14 13 13 12 11 10 11 12 8
34 34 35 33 32 34 32 35 41 38 36 35 35 43 53 53 47 46 53 66 75 78 79 81 84 89 91 90 87 79 71 62 55 56 61 66 65 57 47 38 33 37 43 46 48 49 47 46 47 50 51 50 46 42 39 34 30 29 29 29 29 25 19 15 12 10 9 8 7 6 6 5 5 6 6 6 6 5 5 8 16 28 34 33 32 30 26 26 26 24 23 21 20 19 20 25 22
34 35 35 30 31 31 30 35 39 39 41 40 38 45 56 59 48 47 62 76 82 86 87 88 90 91 88 81 74 66 60 56 59 68 73 67 57 44 33 32 42 52 56 55 50 44 43 48 59 69 70 66 64 64 62 57 54 54 54 54 49 35 21 15 12 10 8 9 8 7 7 7 7 7 7 7 7 7 7 10 20 34 39 37 37 38 37 39 40 38 35 32 31 32 32 38 41
34 35 34 28 31 33 33 36 37 45 52 45 43 46 55 65 57 54 68 73 77 89 95 93 89 85 78 71 67 63 62 65 67 69 63 47 32 24 27 40 49 48 45 43 37 35 43 56 68 75 75 74 79 84 84 82 80 77 73 66 53 35 22 16 13 11 9 9 9 8 8 8 9 9 9 9 9 9 9 11 21 35 38 35 36 39 41 44 48 48 46 42 40 42 43 47 54
33 35 36 34 36 38 42 43 43 60 65 49 43 46 54 64 61 57 61 63 72 83 85 84 82 77 72 67 62 58 61 63 57 49 35 22 19 27 37 39 32 30 36 42 46 55 68 78 84 87 89 92 96 94 91 85 78 72 64 54 41 29 21 16 13 11 10 10 10 10 11 11 13 13 12 11 10 11 10 12 24 35 35 32 32 36 40 44 50 54 54 51 48 48 50 52 57
35 37 39 47 51 54 62 60 56 64 62 47 44 51 58 60 53 52 55 62 75 77 77 82 80 75 70 62 56 56 56 51 38 26 20 25 39 45 39 29 30 48 62 65 69 77 84 89 93 93 86 77 71 67 65 63 59 56 50 41 32 23 17 13 11 11 11 12 13 14 17 19 22 20 15 13 12 13 12 15 27 34 32 29 29 34 41 46 52 58 60 58 54 51 52 55 58
41 43 46 55 65 78 85 73 65 65 56 46 45 51 57 52 47 52 56 65 74 75 81 86 81 77 71 63 61 57 44 30 20 22 36 50 51 41 36 43 60 76 82 80 83 86 87 88 83 72 60 52 49 49 49 48 46 42 36 29 20 13 10 11 13 17 19 23 27 31 32 35 38 34 24 15 14 15 14 18 26 31 29 27 27 34 43 50 56 62 64 62 58 55 56 57 58
43 47 47 49 58 79 89 79 75 74 60 48 48 55 56 48 49 56 61 69 77 83 87 84 78 72 66 61 56 38 22 21 34 53 68 63 42 29 34 47 56 61 64 65 67 69 70 67 58 50 46 45 44 41 37 32 27 21 16 13 13 17 25 35 42 48 52 54 56 58 56 53 54 53 39 22 15 16 16 19 24 27 26 25 26 35 46 53 59 64 65 64 62 61 62 62 59
46 48 47 49 53 62 71 71 66 63 59 52 48 52 51 47 52 57 65 77 85 90 86 76 70 63 57 51 32 14 21 46 66 73 65 48 34 32 34 33 30 28 26 25 27 32 36 36 34 31 28 24 21 18 16 14 13 16 22 31 45 59 70 77 80 80 79 79 77 75 72 67 64 63 54 34 19 16 17 19 22 23 24 23 25 36 48 55 62 66 65 64 65 66 69 70 67
48 51 50 53 56 56 59 62 53 53 65 59 45 48 50 50 55 60 75 87 87 85 77 68 65 59 49 32 11 13 41 68 73 54 34 30 34 35 32 29 27 24 20 17 17 18 17 15 12 11 12 14 18 21 24 32 43 55 67 77 87 92 93 92 91 88 86 84 83 81 77 74 70 67 62 47 28 19 17 18 20 21 21 21 26 38 50 56 62 66 66 65 68 73 75 74 72
51 55 54 50 52 52 54 64 64 61 69 60 46 53 57 54 60 70 81 85 81 76 70 65 62 52 33 13 12 34 52 52 41 22 15 22 30 33 36 43 50 54 56 57 56 52 44 33 26 32 45 54 60 63 68 77 88 93 95 95 93 91 89 88 88 87 86 84 83 83 80 78 75 69 64 57 43 29 21 19 19 19 19 23 30 40 49 56 62 66 66 67 70 76 78 73 72
56 58 55 51 56 57 59 76 80 72 76 69 55 56 57 55 65 76 79 78 76 71 66 63 53 34 15 12 33 52 40 21 12 10 16 27 38 49 60 72 81 83 84 87 88 87 82 74 71 78 85 89 89 89 91 95 97 95 91 88 87 86 86 85 85 86 85 84 82 82 82 80 77 73 67 63 55 45 36 30 27 25 27 31 37 43 48 53 61 64 63 66 72 77 78 74 74
57 55 52 51 56 59 63 73 74 74 83 79 69 66 61 61 69 73 73 75 73 68 64 55 35 16 13 31 52 45 19 8 12 22 37 53 66 76 80 86 90 86 87 90 90 89 89 88 88 92 92 91 92 93 93 92 88 85 84 85 87 88 89 89 89 89 88 87 85 82 81 79 77 76 71 67 63 58 52 47 43 40 39 40 42 44 48 52 58 60 60 65 73 78 78 76 75
55 53 52 53 53 54 59 63 64 73 83 83 86 84 70 65 69 69 71 72 66 63 55 35 18 11 19 37 42 22 8 17 33 51 69 80 85 86 85 85 83 82 84 84 83 86 90 88 88 90 90 91 93 92 89 85 82 84 87 90 91 92 94 94 93 93 93 92 91 89 87 83 79 77 73 70 67 64 61 57 53 50 47 47 45 45 48 51 54 57 59 64 70 75 77 75 73
55 53 54 58 57 55 63 70 67 73 82 87 96 96 76 64 65 67 69 66 59 52 37 18 11 13 17 21 16 10 20 43 63 80 89 91 89 86 86 84 80 80 80 78 77 80 86 88 89 91 92 93 92 86 83 84 88 91 93 95 96 95 97 98 97 98 97 97 96 95 94 90 85 80 76 72 69 66 65 62 57 54 52 51 50 48 50 51 51 52 55 60 67 72 74 72 71
Wind_Speed
13 12 14 13 13 12 14 16 14 14 14 16 19 18 18 18 20 21 20 21 22 23 23 21 19 18 18 17 16 16 18 19 19 19 19 17 14 12 14 17 18 19 20 21 23 24 22 22 21 22 24 25 25 26 28 28 27 26 25 24 24 24 23 22 21 21 22 22 21 21 22 23 23 22 23 22 20 20 21 21 20 20 21 22 21 21 22 21 22 23 24 25 28 30 26 22 20
13 13 15 15 14 14 16 16 13 15 15 18 21 20 20 20 21 20 18 19 20 21 22 20 19 17 17 19 18 17 19 20 19 19 18 15 13 13 14 16 18 20 21 22 23 23 23 22 21 21 21 21 22 24 25 28 29 28 27 25 24 23 22 22 20 20 20 21 21 21 21 22 23 23 23 23 21 21 21 21 21 20 20 21 21 22 22 21 20 20 20 20 23 28 26 21 20
15 15 16 16 15 15 17 16 14 15 16 20 21 20 22 21 18 15 15 17 17 18 18 17 17 16 17 19 18 17 18 17 17 17 18 17 17 17 17 18 20 21 22 22 22 23 23 22 21 21 21 20 20 22 23 25 27 28 27 26 24 22 21 21 20 19 19 20 21 21 21 20 21 22 22 22 21 21 21 20 20 20 20 19 20 21 22 21 19 17 18 18 21 26 26 21 19
16 17 18 18 17 18 18 18 18 18 18 19 17 18 21 19 16 16 18 19 18 16 16 16 17 17 18 19 17 17 18 17 17 18 18 19 19 20 20 21 22 22 22 22 23 23 23 24 23 22 22 20 18 19 20 23 25 25 24 22 22 22 21 21 19 18 18 20 20 21 20 18 19 20 21 22 21 21 20 20 20 20 20 18 18 20 20 20 18 16 17 18 21 26 26 21 19
16 17 18 18 18 19 19 19 20 22 22 21 21 22 21 18 18 19 20 19 19 17 16 17 19 19 19 19 17 18 19 19 19 19 20 21 21 22 22 23 23 24 24 24 24 24 25 26 25 24 22 22 21 19 18 18 20 21 21 20 20 20 21 20 19 17 17 18 19 19 19 17 17 17 19 20 20 21 21 20 20 20 20 18 17 18 19 19 17 16 16 16 20 24 24 20 19
16 17 18 18 18 19 19 21 22 24 24 23 24 23 20 19 19 20 20 19 19 18 18 18 19 19 20 20 19 20 20 21 21 21 21 22 23 24 24 24 25 25 25 26 26 26 27 27 27 25 23 23 22 20 19 18 18 17 17 18 17 18 19 18 19 19 17 17 17 18 17 17 17 16 17 18 18 19 19 20 20 20 20 18 17 17 18 18 16 16 17 16 18 23 24 19 19
14 16 17 17 18 19 20 24 25 25 25 23 23 22 20 21 20 21 21 21 20 20 19 19 19 19 21 21 21 21 21 22 22 22 23 24 24 25 26 26 26 27 27 28 28 28 28 28 28 26 25 25 23 21 20 20 20 19 18 18 14 15 16 16 18 20 19 18 17 18 17 18 18 16 17 17 17 17 17 18 19 19 18 18 17 17 18 18 16 16 19 19 18 22 25 20 18
11 13 16 16 17 20 21 25 25 25 26 24 23 23 22 22 22 22 22 21 21 21 21 20 20 21 23 22 23 23 22 23 23 24 24 25 26 27 28 28 28 28 28 29 29 29 29 29 28 28 27 27 26 24 23 21 22 23 24 23 19 18 18 17 18 20 19 19 19 19 19 20 19 18 18 18 17 17 17 17 18 18 18 17 17 18 18 18 17 17 20 21 18 18 23 22 17
10 11 15 16 18 21 23 25 25 25 25 24 24 24 24 24 23 22 21 20 20 20 21 21 22 23 24 24 24 25 24 25 25 26 27 28 29 29 30 30 29 29 29 29 30 31 30 30 30 29 29 28 28 27 25 24 23 24 27 28 26 25 24 21 20 20 19 20 21 21 21 20 20 20 20 20 19 18 18 18 17 16 17 17 17 19 18 17 18 19 19 20 19 17 21 23 18
11 11 13 15 18 21 24 26 25 25 25 24 25 25 25 24 23 21 19 19 19 20 21 22 23 24 25 25 25 26 26 26 27 29 30 31 31 31 31 31 30 30 29 30 30 31 31 31 30 30 30 30 29 29 28 26 25 25 27 28 28 28 28 27 25 23 22 21 21 23 23 22 21 20 21 22 20 19 19 19 19 16 16 17 17 18 17 16 17 18 19 20 18 16 19 23 20
11 12 13 14 18 21 24 26 25 25 25 25 25 24 24 23 22 20 19 19 19 20 21 22 23 24 25 26 27 27 28 29 30 32 32 32 32 32 32 31 31 30 30 30 31 31 31 31 31 31 31 31 31 31 30 29 28 28 28 28 28 28 29 29 27 25 24 22 21 23 24 23 22 21 21 22 20 20 21 20 20 18 16 16 17 17 15 15 16 17 19 19 18 17 19 23 21
11 12 13 14 18 21 23 26 26 26 25 25 24 23 22 22 21 21 19 20 20 20 21 22 23 24 25 27 28 28 30 31 32 32 32 32 32 32 32 32 32 31 31 32 31 31 32 33 33 33 33 33 33 32 31 31 31 31 30 29 29 29 30 30 28 26 23 23 23 23 24 23 24 24 23 23 22 22 23 22 20 20 20 17 17 17 14 15 16 18 19 19 20 21 20 21 22
11 12 13 14 18 19 22 24 25 26 25 23 23 22 21 21 20 20 20 20 21 21 21 22 23 25 26 28 29 31 32 32 33 33 33 33 33 33 33 33 33 32 33 33 33 33 34 35 35 35 35 35 34 33 33 33 33 33 32 31 30 32 32 29 28 27 25 24 24 24 24 24 24 25 25 25 25 23 23 23 21 21 22 19 18 18 17 15 14 16 18 19 22 23 20 20 22
11 13 14 14 17 19 21 23 23 25 25 23 22 22 20 19 18 18 20 21 21 21 22 23 25 26 29 30 30 31 31 32 33 33 33 33 33 33 33 33 33 33 33 33 34 34 35 35 36 36 36 36 35 35 35 34 34 35 34 32 33 35 35 31 29 30 27 25 25 25 25 26 25 25 26 27 27 25 24 23 21 21 21 19 19 19 19 17 15 14 17 19 22 24 21 19 20
12 13 14 15 18 20 21 23 23 26 25 21 20 20 18 18 17 18 20 21 22 22 24 25 26 28 30 30 31 31 31 32 32 33 33 33 33 33 33 33 33 34 34 34 34 35 35 36 36 37 37 36 36 36 36 35 35 36 35 34 35 36 36 35 34 33 30 27 27 27 27 27 27 27 27 27 27 27 26 25 24 23 21 21 20 20 20 21 18 16 16 17 20 24 23 21 22
14 14 15 17 20 22 22 23 23 24 23 20 19 19 18 17 16 18 20 22 23 24 26 27 27 28 29 29 30 30 31 32 32 33 33 33 34 34 34 34 34 35 35 35 35 35 35 35 35 35 35 35 35 35 35 34 34 35 35 35 36 38 38 37 36 35 33 30 29 29 29 28 28 28 27 27 28 29 28 27 28 27 24 23 22 21 21 21 20 18 18 18 20 23 25 25 24
15 15 17 19 21 22 21 21 22 23 22 21 20 18 18 18 18 20 21 23 25 25 25 25 26 26 27 27 28 29 30 31 32 33 34 34 35 35 35 35 35 35 35 34 34 34 34 33 32 32 32 33 33 33 33 33 32 33 35 37 37 38 39 38 36 36 35 33 31 31 31 30 30 29 28 29 29 30 31 30 29 29 28 26 25 24 23 21 20 20 20 21 21 22 26 28 25
15 16 18 20 21 21 20 21 22 24 24 23 22 21 21 21 22 23 23 22 21 21 21 22 23 25 26 26 27 28 29 30 31 33 34 34 35 35 34 34 34 33 33 32 32 32 32 32 31 31 31 31 32 32 32 32 32 32 33 36 38 39 39 39 38 37 37 35 33 32 33 33 32 31 31 31 31 32 32 32 31 31 30 30 28 27 26 24 22 22 22 23 23 23 26 29 27
15 17 20 21 21 21 21 22 23 24 25 25 25 24 23 23 23 22 21 19 19 20 21 22 24 25 25 26 26 27 28 28 29 30 31 32 33 34 33 33 32 31 31 31 31 31 31 31 31 31 31 30 31 31 32 32 31 31 32 34 36 38 38 38 39 39 38 36 34 33 34 34 34 33 32 33 33 33 33 33 33 33 32 33 32 31 31 29 26 24 24 24 24 25 26 28 29
16 18 21 22 22 22 23 23 24 26 27 26 26 25 24 22 20 20 20 21 22 23 24 25 26 26 26 26 27 27 27 27 27 28 29 30 31 32 33 32 32 31 30 30 29 29 29 30 30 30 30 31 31 31 32 32 31 31 31 32 33 35 35 35 35 36 35 35 34 34 34 34 34 35 34 34 34 34 34 35 35 35 34 34 34 34 34 33 30 27 26 26 26 27 27 28 29
18 19 21 22 23 23 24 25 25 26 26 25 25 25 22 19 19 21 22 25 25 25 26 27 28 27 27 27 27 27 27 27 28 28 29 30 31 32 32 32 32 31 30 29 28 28 29 29 29 29 29 30 30 31 31 32 32 32 31 31 32 33 34 34 34 33 32 33 33 33 34 35 35 36 36 36 35 34 33 34 35 35 35 35 36 35 35 35 33 31 29 28 28 28 28 28 29
18 19 20 22 23 23 24 25 25 25 24 24 24 24 22 22 23 24 25 26 26 25 27 28 29 29 29 28 27 27 28 29 29 29 30 30 31 32 32 32 31 30 30 29 28 28 28 29 29 29 29 29 29 30 31 31 31 32 32 32 32 33 34 35 36 35 34 34 33 32 33 34 35 36 36 36 36 35 34 34 36 35 35 36 36 37 36 36 36 35 33 31 30 30 30 29 30
18 19 20 21 22 23 23 24 24 24 24 24 25 25 24 25 25 25 26 26 25 26 27 28 29 29 28 27 27 28 29 30 31 31 31 31 32 33 33 32 31 30 30 29 28 28 28 29 29 29 29 29 29 29 30 30 31 31 32 32 32 32 33 34 35 36 37 37 37 36 35 34 34 34 35 36 36 35 34 35 36 36 36 37 37 37 37 37 37 37 35 33 33 33 32 31 32
19 19 20 20 21 22 23 23 24 24 25 25 26 25 25 25 25 25 25 26 27 27 27 28 28 27 28 28 29 30 31 32 32 32 32 32 32 33 33 33 32 31 30 30 29 29 29 29 30 30 30 30 29 29 30 30 30 31 31 31 31 32 32 32 33 34 35 37 39 40 39 39 37 36 36 37 38 38 37 37 36 36 37 36 37 39 39 38 38 38 38 37 37 37 35 33 32
18 18 19 20 20 21 21 22 23 24 24 25 26 26 26 25 25 27 28 28 28 27 27 28 27 27 28 29 30 31 32 32 33 32 32 33 33 34 34 34 33 32 32 31 31 31 30 31 31 31 31 31 31 30 31 30 31 31 31 31 31 32 31 31 32 32 33 34 36 38 39 40 41 40 39 39 39 40 41 41 40 40 40 38 37 39 40 40 39 39 39 39 39 40 39 37 35
18 19 19 20 20 20 21 21 21 22 24 25 27 27 27 27 27 28 28 27 27 28 28 28 28 29 30 30 31 32 33 34 34 34 34 34 34 34 34 34 34 33 32 32 32 32 32 32 32 33 33 32 32 32 32 32 32 32 32 33 32 32 32 32 32 31 32 32 33 34 35 37 39 41 42 42 42 42 43 44 44 43 44 43 41 39 38 37 38 39 40 40 41 41 41 41 40
19 19 20 21 21 20 20 18 18 21 24 26 27 28 27 27 26 26 26 28 30 30 29 30 30 31 31 32 33 34 35 35 35 36 35 35 35 34 34 34 34 33 33 33 33 33 32 33 33 34 34 34 34 34 34 35 35 35 35 35 34 34 34 34 33 33 32 32 32 32 33 34 36 37 39 41 42 43 43 45 45 45 45 45 45 44 41 38 39 41 41 42 42 42 42 43 43
21 20 21 22 22 20 18 17 18 24 27 28 30 30 28 26 24 26 29 31 30 28 29 31 33 34 35 37 37 37 37 37 37 36 35 35 34 34 33 33 33 33 33 34 34 34 34 34 35 35 35 35 36 36 36 36 36 37 37 37 37 37 37 36 36 36 35 35 34 33 33 34 34 35 36 37 38 40 41 43 44 46 46 47 47 47 46 44 44 45 44 42 42 42 43 44 45
21 21 21 21 20 17 17 19 22 26 29 29 31 33 30 27 29 32 34 32 28 27 30 33 36 38 39 39 39 38 38 37 37 36 35 34 34 33 33 32 33 34 34 35 35 36 36 36 36 36 37 37 37 37 37 36 36 36 37 37 38 38 38 38 38 38 38 39 38 38 38 38 38 37 37 37 37 38 38 40 42 43 45 47 48 48 48 47 46 47 47 46 44 43 43 44 46
20 21 20 21 20 18 19 23 25 26 28 29 31 33 31 30 33 35 34 31 29 30 35 38 39 39 38 37 36 37 37 37 36 35 34 33 32 32 32 32 33 34 34 35 36 37 37 38 38 38 39 39 39 39 39 38 38 38 38 38 38 39 38 38 39 39 39 40 41 41 42 43 43 44 43 43 42 41 40 40 41 42 43 45 47 48 49 49 48 48 49 50 50 48 46 45 46
20 23 22 23 26 26 25 25 28 28 30 30 28 30 31 33 35 34 31 29 30 34 39 41 39 36 35 34 34 35 36 36 35 34 32 31 31 31 32 32 33 34 35 35 36 37 37 38 39 40 40 40 40 40 41 41 41 41 41 41 41 41 41 41 42 43 43 44 44 44 45 45 46 47 47 48 48 48 47 45 44 44 45 45 46 47 47 48 48 49 49 51 53 53 52 49 47
24 27 28 30 32 35 34 29 31 34 34 30 27 30 35 36 35 33 31 31 32 36 39 39 36 34 33 33 33 34 34 34 33 31 30 30 30 31 32 33 34 36 36 36 37 38 38 39 39 40 41 41 42 42 42 43 43 43 43 43 44 45 46 47 48 49 50 50 51 50 50 49 49 49 50 51 52 53 53 52 51 50 50 50 50 49 49 49 49 48 48 50 50 52 54 53 50
32 32 35 36 37 41 41 35 35 38 36 32 30 33 37 36 37 37 35 34 33 34 35 33 32 31 32 32 33 33 33 32 30 29 29 30 30 31 33 35 36 37 38 38 39 41 41 42 42 42 43 44 44 45 45 46 45 45 45 45 47 49 51 53 54 55 55 55 56 55 55 54 54 54 55 55 56 57 58 58 58 57 56 55 55 55 54 54 54 53 52 51 51 51 52 54 53
38 36 38 37 38 40 41 40 39 37 35 35 34 35 35 36 37 36 35 33 30 27 28 29 30 31 31 32 33 32 31 29 28 28 29 30 31 32 33 34 35 36 38 38 39 40 42 43 44 44 45 46 47 47 48 48 48 47 48 48 49 51 53 55 57 59 59 60 59 59 59 60 59 60 61 61 61 61 61 62 62 63 62 61 60 60 60 60 59 59 58 57 57 56 55 55 55
34 36 37 39 40 38 38 41 38 36 36 36 38 37 37 36 33 30 30 32 29 25 23 25 28 30 31 32 32 30 29 28 28 29 29 30 31 31 32 33 34 35 36 37 38 39 41 42 44 45 46 47 48 49 50 51 52 52 53 53 54 54 55 56 58 59 61 63 63 63 63 64 65 67 69 68 67 66 65 66 66 66 66 66 65 65 64 64 64 64 64 63 63 62 61 60 59
29 32 34 38 40 39 38 37 33 36 41 40 39 39 36 33 31 30 31 32 28 24 20 23 27 30 31 31 31 29 28 28 28 28 28 29 29 30 31 32 34 35 37 38 40 42 43 45 46 48 49 51 52 54 54 55 56 57 58 59 60 60 60 60 60 61 62 64 65 65 66 67 70 74 76 74 73 71 70 69 69 69 70 69 69 69 69 69 68 68 68 68 67 66 65 64 63
29 32 35 35 37 40 38 34 34 38 42 42 38 35 32 31 32 32 32 30 26 21 19 22 26 29 31 31 29 27 27 26 26 26 26 27 28 30 32 34 36 38 41 42 44 47 48 50 52 54 55 56 58 59 60 61 62 63 63 64 65 66 66 66 66 65 65 65 65 66 68 71 76 80 80 78 75 73 71 70 70 70 71 71 72 72 72 72 72 73 73 73 72 71 70 69 68
31 33 33 34 38 42 37 33 38 40 38 37 32 29 30 31 31 30 29 27 23 19 18 22 26 29 30 29 27 26 25 24 24 25 26 28 30 33 35 39 42 45 47 49 52 54 57 59 60 62 63 63 64 64 65 66 66 66 67 68 69 69 70 70 71 71 70 69 70 71 73 77 80 81 78 75 72 71 70 69 69 69 70 70 71 72 73 74 74 75 76 76 76 76 75 74 73
34 33 33 37 41 44 43 40 41 38 33 33 28 26 29 28 26 27 27 25 21 19 19 23 26 28 28 26 25 24 23 23 24 26 28 31 33 37 41 45 48 51 54 57 61 64 67 69 71 71 71 71 70 69 69 69 68 68 68 69 70 71 71 71 72 73 73 74 75 76 78 79 79 76 73 70 69 68 67 67 67 67 67 67 68 69 71 72 73 74 75 77 78 78 78 78 78
37 34 35 41 39 39 43 45 42 35 29 27 26 27 26 23 25 27 25 23 21 20 20 24 27 27 26 25 23 21 21 23 26 30 34 38 42 46 50 53 56 59 63 66 69 72 74 75 76 75 74 72 71 69 68 67 66 66 65 65 65 66 68 69 70 71 73 75 76 77 77 76 74 70 67 65 64 64 64 64 64 65 65 65 65 66 67 68 69 70 72 73 75 77 78 79 80
38 33 37 39 37 38 40 40 39 34 29 26 26 24 20 22 26 26 24 23 21 20 22 24 26 26 24 22 20 20 24 28 34 39 44 49 54 58 61 64 67 69 71 73 74 75 76 75 73 71 70 69 67 65 63 62 62 60 58 57 58 59 61 63 65 68 70 72 73 73 72 70 68 64 62 61 60 59 59 60 61 62 62 61 61 62 63 64 64 66 67 68 70 72 75 77 77
37 35 39 35 35 42 41 38 35 30 28 27 22 14 12 23 25 21 25 25 21 21 22 25 25 25 23 21 21 24 29 36 43 49 54 60 64 68 70 72 72 73 74 74 75 74 72 69 66 64 64 63 62 60 59 58 57 54 52 52 52 53 56 58 60 62 65 66 67 67 66 65 63 61 59 58 56 55 55 56 56 58 58 58 58 58 59 60 61 61 62 64 65 67 69 72 74
35 38 39 33 38 44 42 37 28 24 25 21 14 7 11 22 23 21 27 23 21 22 23 25 25 24 21 20 24 30 37 44 51 58 64 68 70 70 71 71 72 74 74 73 71 68 64 61 59 59 59 59 58 56 55 54 52 50 50 51 51 52 54 56 56 57 59 61 62 62 61 60 58 56 55 54 54 52 51 51 52 53 54 54 54 54 55 55 56 57 58 59 60 61 63 65 69
33 38 36 37 42 43 42 35 22 26 31 21 16 15 13 19 24 27 26 19 20 22 23 24 23 21 21 24 30 37 45 53 60 66 69 69 68 68 69 72 73 72 69 66 62 58 55 53 53 54 54 53 52 51 50 49 48 48 49 51 52 53 55 56 56 55 56 57 59 59 58 56 54 52 51 51 51 51 49 48 48 48 48 49 49 49 50 50 51 52 53 54 55 56 56 58 62
35 35 34 42 44 42 44 33 23 30 30 22 24 23 12 15 28 31 22 15 17 21 23 22 19 20 24 30 37 46 54 63 67 67 66 66 66 67 70 71 69 64 60 58 55 52 51 51 50 49 48 48 48 48 48 48 48 50 51 53 54 55 56 56 55 55 55 55 56 57 56 54 52 49 48 48 48 49 47 46 45 45 44 44 44 45 45 45 46 47 48 50 51 51 52 52 55
36 32 37 46 43 43 41 29 27 28 19 16 22 25 15 13 27 26 14 12 15 18 19 17 18 25 32 40 49 57 63 66 65 63 64 66 67 69 69 66 62 58 57 56 55 54 54 52 48 46 46 47 48 48 50 51 53 55 57 58 60 60 57 55 54 53 53 53 53 54 53 52 50 48 47 46 45 45 45 45 44 43 42 42 42 42 43 43 43 44 45 46 47 48 49 48 50
35 36 45 49 45 42 32 25 29 18 8 11 18 30 24 11 16 18 14 16 15 14 14 15 23 34 44 54 60 64 64 62 62 64 67 70 70 68 63 59 58 58 58 57 56 55 52 48 45 45 46 46 47 48 51 54 56 59 61 62 62 61 58 55 53 52 51 50 50 50 50 49 48 47 46 45 44 44 44 44 43 42 41 40 40 41 42 42 43 44 45 45 46 46 47 47 47
36 40 48 48 44 36 20 22 26 6 3 15 25 36 28 9 10 18 22 23 16 12 15 22 34 45 55 62 65 64 61 61 64 68 70 70 66 61 57 57 58 58 56 54 52 50 47 45 44 44 44 45 47 50 53 56 58 60 61 61 60 59 57 55 53 51 48 47 46 46 46 45 44 44 44 44 44 43 43 42 42 41 39 38 39 40 41 42 43 44 45 46 46 46 46 46 48
35 41 46 34 24 20 10 12 15 4 10 25 32 30 16 8 15 25 30 26 16 16 23 34 46 53 60 64 63 62 61 64 68 68 65 61 57 57 57 56 54 51 49 48 47 46 45 44 44 45 48 50 51 53 54 56 57 58 59 59 59 58 56 54 51 48 45 44 43 42 42 41 40 41 43 44 42 41 41 41 41 39 37 37 38 39 40 40 41 42 44 46 47 47 47 47 49
29 35 38 24 9 7 5 6 8 9 19 32 33 18 8 15 24 29 31 24 18 23 32 44 53 55 59 60 59 62 65 67 65 60 55 54 56 57 54 49 46 46 46 46 47 48 48 48 49 51 52 52 52 53 54 55 56 57 58 59 58 55 52 49 47 45 43 42 41 40 40 40 39 40 42 42 40 39 39 40 40 39 37 37 37 36 37 38 39 40 42 46 47 47 48 49 50
25 31 33 29 18 8 5 5 5 11 21 30 26 11 11 24 26 26 25 21 22 29 39 49 54 56 58 58 62 67 66 61 55 51 52 55 57 52 47 45 45 47 48 49 50 51 51 51 51 52 52 52 52 53 54 55 55 55 55 54 52 50 48 47 45 44 43 42 41 40 40 40 40 40 41 41 39 37 37 38 39 39 38 37 36 35 35 36 37 40 42 45 46 46 47 48 50
24 30 33 33 24 13 13 15 17 18 18 19 17 14 23 29 25 23 22 21 26 36 47 54 57 58 60 63 68 67 60 52 49 52 56 56 51 46 46 46 47 47 47 47 48 48 49 49 50 51 51 52 52 51 51 51 50 50 49 48 47 47 46 46 45 44 42 41 40 40 40 41 40 40 40 40 38 36 36 37 38 39 38 36 35 34 34 35 37 40 42 44 44 44 44 45 47
25 30 33 29 18 13 18 24 28 23 11 10 15 21 29 26 21 24 23 26 35 45 54 58 58 60 64 68 69 62 54 50 52 57 56 51 47 47 49 48 47 46 44 44 44 44 45 45 46 47 47 46 45 44 44 44 44 45 45 45 44 44 43 42 42 41 40 39 38 38 39 39 39 40 40 40 39 37 36 37 37 37 37 36 34 33 33 35 37 39 42 43 42 42 42 42 43
27 27 29 28 18 17 21 17 18 17 8 9 17 23 26 21 19 24 27 34 46 54 58 58 59 64 68 69 64 56 53 54 56 56 50 47 48 49 50 49 48 45 43 43 42 41 41 41 42 43 43 42 41 41 41 41 42 43 42 41 40 39 39 38 38 38 37 37 36 36 37 37 38 39 40 40 40 39 37 37 36 36 35 35 35 33 33 35 37 40 42 42 40 39 38 38 38
24 23 27 30 16 13 20 11 7 13 9 9 19 24 23 23 24 27 33 44 54 58 59 60 64 68 68 65 58 54 56 57 54 50 47 48 49 49 49 49 48 46 44 44 42 40 38 37 39 40 40 40 40 40 39 38 38 37 35 34 33 33 33 32 33 33 33 34 34 34 36 37 38 39 39 40 41 40 39 38 37 36 35 35 35 33 32 34 38 40 42 40 38 37 36 36 36
27 30 33 35 21 15 21 12 6 10 8 10 19 17 17 25 28 29 40 51 57 59 61 64 68 69 65 59 55 56 58 54 49 46 47 48 47 49 49 48 49 48 47 45 43 41 39 37 37 37 37 37 36 36 34 31 30 29 29 29 29 29 29 28 29 29 29 30 31 31 33 34 36 38 39 40 40 40 40 39 38 37 36 35 34 32 32 34 38 41 41 39 37 36 36 36 37
35 38 38 38 33 30 27 15 9 9 6 8 10 8 19 30 26 32 48 55 56 59 63 68 70 67 62 58 56 57 53 48 46 47 48 48 48 49 49 49 50 49 47 46 43 41 40 39 37 36 35 33 32 30 27 25 25 25 26 26 27 27 27 27 27 26 26 26 26 27 29 31 33 35 37 39 39 39 39 38 37 35 34 33 32 32 32 34 38 40 40 39 38 37 38 38 39
35 37 36 35 36 35 23 11 15 17 12 11 6 8 23 29 27 41 55 55 57 61 65 70 69 65 63 59 56 53 48 46 49 49 49 50 50 50 50 50 49 47 45 43 41 38 38 38 37 35 33 29 26 24 23 24 24 25 26 26 26 26 26 26 26 25 24 23 23 23 24 26 28 30 32 35 36 36 36 35 34 32 31 30 30 31 32 34 37 39 39 38 38 38 38 39 39
Wind_Direction
249 256 260 260 261 268 268 269 273 271 267 265 267 269 274 279 281 283 289 294 292 287 285 286 287 280 271 264 262 261 261 258 255 249 245 251 256 252 243 241 246 249 251 255 258 257 253 250 251 252 254 258 262 264 266 268 271 274 276 277 277 275 271 268 267 266 267 267 266 266 267 268 268 267 264 261 255 248 247 247 246 244 246 249 249 248 248 247 248 253 257 261 265 265 261 255 248
251 257 263 262 266 269 268 272 271 269 269 268 270 273 278 282 285 288 289 292 293 289 286 284 286 281 273 264 257 256 257 256 254 253 255 259 260 259 257 255 253 252 252 253 255 257 254 251 248 247 251 257 263 267 270 272 272 273 275 276 275 273 271 266 263 262 263 265 264 262 262 263 264 265 265 262 256 250 249 249 249 249 247 248 250 249 248 247 244 247 251 254 260 263 261 257 254
253 253 259 262 267 267 266 270 267 269 270 268 273 276 281 287 289 289 288 292 296 294 290 287 285 279 274 268 259 258 262 265 264 262 262 263 264 266 266 263 262 261 259 258 258 258 256 252 250 248 253 263 269 272 274 277 278 278 278 278 274 270 268 265 261 258 258 259 260 260 258 258 259 260 262 262 258 252 249 249 251 253 252 250 251 249 246 246 243 242 247 250 256 263 264 259 256
256 254 255 258 263 265 267 269 266 267 265 266 272 275 282 287 287 286 288 290 291 292 290 289 286 281 280 277 272 270 271 272 270 268 268 268 270 272 272 270 268 267 266 265 262 259 255 252 251 251 255 261 265 269 276 282 282 280 279 282 280 271 262 260 258 255 255 255 256 256 255 253 254 255 257 260 260 256 252 249 249 252 252 249 250 248 244 243 240 239 247 255 262 267 267 261 258
259 257 257 256 259 261 263 265 263 260 259 263 270 276 284 286 286 287 288 288 287 287 285 284 282 281 280 275 272 271 273 273 270 269 270 271 273 274 274 274 273 272 271 270 267 262 256 254 254 254 257 258 257 260 269 275 274 277 279 278 277 271 262 257 253 250 250 252 251 251 250 247 247 251 255 258 259 259 256 251 247 247 248 245 246 246 240 239 237 235 239 252 265 270 268 263 260
262 260 261 259 259 261 259 259 259 259 264 269 273 279 285 287 288 288 289 289 287 285 284 281 279 277 272 268 267 267 269 271 271 271 271 272 274 275 276 276 275 274 272 271 269 265 259 257 255 255 256 258 259 258 259 257 256 265 270 267 266 269 269 263 256 250 247 249 248 245 243 242 241 244 253 256 257 259 257 254 249 244 244 242 242 242 237 234 232 230 230 238 254 265 270 267 261
267 262 263 263 262 263 261 261 264 267 273 276 277 281 284 285 288 289 290 290 288 284 281 278 278 273 264 264 265 265 268 269 271 273 273 274 276 277 277 277 276 274 272 270 268 265 261 258 255 255 254 255 257 257 257 253 252 252 251 254 258 262 266 264 260 254 249 249 246 242 240 238 236 235 244 250 253 256 257 258 253 247 244 239 237 238 236 232 227 226 227 228 238 259 273 272 261
282 265 264 266 262 265 265 266 270 272 276 279 281 283 284 285 288 290 290 288 284 280 277 276 276 269 262 264 266 267 271 271 272 272 273 275 277 278 278 276 274 272 269 267 267 265 262 258 255 255 255 255 255 255 256 254 253 251 249 251 254 258 260 259 258 251 246 245 241 238 238 238 235 233 237 241 246 250 253 256 254 251 247 241 235 234 237 232 225 225 224 223 227 246 266 268 259
304 276 267 266 262 266 268 271 274 275 279 281 282 283 285 287 288 290 289 286 280 275 273 272 271 267 264 266 267 270 272 272 273 273 275 276 277 277 276 275 272 270 267 265 265 264 262 259 257 256 256 256 256 256 255 252 251 252 252 252 256 262 261 257 254 250 249 249 244 239 236 236 236 236 238 240 242 245 248 253 253 253 249 246 239 234 238 234 227 226 221 218 222 233 255 266 259
315 290 274 268 266 268 271 275 278 280 283 284 285 287 288 289 289 288 285 283 277 272 268 266 265 263 264 266 267 269 270 270 272 274 275 276 276 276 275 273 271 268 266 265 263 263 262 260 259 258 258 258 258 257 255 252 250 251 253 255 258 259 258 257 253 252 254 254 252 247 239 236 235 235 239 239 241 243 244 250 253 253 251 248 244 237 237 237 231 229 225 218 222 229 246 260 257
316 300 286 273 270 272 276 281 283 284 286 287 290 292 291 291 290 288 283 279 275 269 264 262 260 259 261 263 266 268 269 271 272 273 274 274 274 274 273 270 268 267 265 264 262 261 261 259 258 258 258 258 258 258 257 253 249 249 252 256 257 255 255 255 252 251 252 254 256 251 245 241 237 233 234 235 236 239 240 245 250 252 254 247 242 240 236 237 230 223 224 220 222 228 235 252 257
316 304 293 278 275 277 281 285 287 289 289 292 296 296 294 291 289 287 282 276 272 267 262 260 259 260 262 264 268 270 272 273 273 273 273 272 272 271 270 269 267 265 264 263 262 261 260 259 259 258 258 257 257 257 255 252 250 250 252 254 253 250 252 252 250 250 249 255 257 250 246 244 241 237 235 234 234 238 238 241 245 248 254 251 245 243 238 240 234 217 216 217 219 225 226 242 254
317 305 295 285 282 284 284 287 291 294 296 301 302 298 295 292 288 284 279 273 268 265 262 261 262 265 268 270 271 272 273 273 273 273 272 272 271 269 268 267 266 264 263 262 261 260 260 260 260 259 259 258 257 255 253 252 251 250 250 251 248 246 248 248 247 249 250 255 255 249 246 244 244 243 240 237 236 240 239 238 241 244 248 249 247 246 243 245 240 221 218 218 215 220 223 233 248
316 303 296 289 287 288 289 292 297 299 302 307 304 300 296 292 288 280 274 268 264 264 265 266 268 271 273 274 274 274 274 274 274 273 272 271 269 268 266 266 265 264 263 261 260 259 259 259 260 260 260 259 257 256 254 252 252 250 249 246 244 244 245 245 245 250 254 254 252 248 249 249 247 245 242 240 239 239 238 236 235 239 241 242 244 246 248 246 242 232 227 221 213 216 222 228 240
312 302 297 290 288 290 293 297 301 302 305 310 306 301 297 291 285 276 270 267 266 268 270 273 274 275 275 276 276 276 275 274 273 272 271 270 268 267 266 265 264 264 263 263 262 260 260 259 259 259 259 259 258 257 255 253 251 250 247 243 240 243 245 247 248 252 254 251 250 250 251 252 248 246 245 244 242 239 239 236 233 236 239 239 242 243 246 246 245 243 234 222 215 218 222 224 232
309 304 296 290 290 293 297 302 304 304 307 309 306 302 295 289 281 273 269 268 271 273 275 276 276 275 275 276 276 275 274 273 273 272 270 269 268 267 266 265 264 264 264 264 264 263 262 260 258 257 257 257 256 255 254 252 250 246 244 240 238 240 243 246 248 251 251 248 250 252 252 249 246 246 247 246 245 244 243 240 237 238 239 239 239 238 238 242 247 249 243 230 221 221 223 225 230
306 302 293 290 293 296 302 305 303 303 304 306 305 300 292 286 280 275 273 273 274 275 274 275 274 274 274 275 276 276 275 274 273 272 270 269 268 267 266 265 265 265 265 265 264 264 263 262 259 256 255 254 254 254 253 251 248 244 240 237 236 238 240 242 244 246 247 248 248 250 250 248 245 246 247 248 248 247 246 244 243 241 241 240 238 237 236 239 244 246 247 241 230 225 225 226 229
304 298 294 294 296 299 303 302 299 300 301 302 301 297 291 286 283 280 277 275 275 275 275 275 274 274 276 279 279 279 278 276 274 272 271 270 269 268 267 266 265 264 264 263 263 263 262 262 261 259 256 254 253 253 252 251 248 245 241 237 235 236 238 240 241 242 244 245 245 246 247 247 246 246 246 248 250 249 248 247 246 244 243 241 240 239 238 239 241 242 243 244 239 235 231 227 227
305 298 297 299 301 302 302 299 299 299 300 300 298 295 291 288 285 281 279 278 278 280 282 281 278 278 280 282 281 281 280 278 276 274 272 270 269 268 267 265 264 263 261 261 261 262 262 262 262 261 259 256 254 253 252 251 249 247 245 242 239 238 238 239 242 243 244 244 243 243 245 246 246 246 247 248 248 248 248 248 247 246 245 243 243 242 241 240 240 240 240 242 241 242 240 234 228
306 301 301 303 305 302 301 300 300 299 298 297 296 295 293 289 283 281 284 286 287 287 286 284 282 282 283 284 281 279 278 278 277 275 272 269 268 266 265 264 262 260 259 260 261 262 263 263 263 262 261 259 257 255 254 253 252 249 246 245 244 243 242 242 244 246 247 246 244 242 243 245 245 247 249 248 247 246 247 249 249 249 248 245 244 243 243 242 241 239 238 239 240 242 244 242 235
308 306 304 304 304 301 301 300 299 299 298 296 295 296 294 288 284 286 289 290 289 288 285 284 283 284 285 284 279 277 278 277 277 274 270 267 265 263 262 261 260 260 260 261 263 263 263 263 262 262 261 261 260 258 257 255 254 252 249 246 245 245 243 243 244 244 244 246 245 243 243 245 246 247 248 248 247 246 247 248 248 249 248 247 245 244 244 244 244 241 238 238 240 242 244 245 243
311 311 308 306 306 304 303 302 301 301 300 298 296 295 293 289 289 290 290 289 289 288 285 284 284 284 284 282 276 276 277 276 274 272 269 266 263 262 261 260 260 260 261 262 263 263 262 262 262 262 262 261 261 260 259 258 257 255 253 250 247 245 243 242 242 241 240 242 243 242 242 245 246 245 246 247 246 246 247 248 247 246 247 247 246 246 245 245 245 243 239 237 239 242 243 244 246
316 316 312 309 309 307 305 305 305 305 303 301 298 296 294 293 292 293 291 291 292 292 290 287 286 285 284 281 276 275 276 272 270 269 267 265 263 262 261 260 260 259 259 259 260 261 261 261 261 262 262 261 261 260 260 260 259 258 257 255 252 248 245 244 242 241 240 240 240 240 240 241 242 242 243 245 245 245 246 245 244 244 245 246 247 247 246 245 244 243 243 242 241 242 242 243 246
318 316 314 311 310 308 308 308 308 306 304 302 300 299 298 298 297 296 294 294 296 295 293 291 289 287 284 282 278 276 275 270 266 266 265 263 262 260 260 259 258 257 256 257 258 258 259 260 261 261 261 260 260 260 259 258 258 258 258 257 256 254 251 249 247 244 242 241 240 240 240 239 240 240 241 243 243 244 244 245 245 244 243 243 244 246 246 245 244 243 245 247 247 246 244 242 243
321 318 315 313 310 308 309 310 310 308 306 303 301 301 300 300 300 297 296 296 296 294 293 291 288 286 285 283 280 277 274 268 264 263 262 260 259 257 257 256 256 256 255 255 256 257 259 260 261 261 261 260 260 259 258 258 258 257 258 258 257 256 255 254 252 250 248 245 243 242 241 240 240 240 241 242 243 244 245 249 249 249 249 248 244 242 240 240 243 245 246 247 247 247 247 245 243
325 321 317 314 309 307 310 312 314 311 309 307 303 301 301 302 302 300 301 301 300 299 295 291 288 286 286 284 281 277 272 267 263 260 259 257 256 255 254 254 254 255 256 256 257 258 259 261 262 262 262 261 260 260 259 259 258 258 257 258 257 257 256 255 254 253 251 250 249 247 245 244 242 242 242 243 244 245 246 248 249 248 251 253 252 249 243 237 239 245 246 247 246 246 247 247 245
326 322 318 312 306 308 312 311 312 313 313 313 309 307 306 306 305 305 307 309 308 305 298 293 290 288 287 286 282 277 270 265 260 257 256 255 254 253 253 253 254 256 258 259 260 261 262 263 264 264 264 264 263 262 262 261 260 259 259 258 257 257 256 256 255 254 253 252 251 250 248 246 245 245 244 244 245 245 245 245 246 247 247 249 251 252 250 245 242 243 244 243 243 244 245 247 248
325 319 316 310 306 309 309 302 304 312 317 318 316 313 312 313 313 314 315 314 311 305 298 293 291 289 287 286 280 273 266 261 258 255 253 253 252 252 252 254 256 258 260 262 264 265 266 266 267 268 268 268 267 266 265 265 264 263 262 261 260 259 258 257 257 257 256 256 256 256 256 254 251 249 248 246 246 244 244 243 244 245 246 246 247 248 249 248 246 244 244 243 242 242 243 244 247
323 319 317 312 306 305 304 304 309 317 324 324 320 317 317 321 320 319 318 314 310 305 301 296 291 288 286 282 276 267 262 258 256 254 253 252 251 252 253 255 258 260 262 264 266 268 270 271 272 272 273 273 273 272 271 269 268 267 266 265 264 263 261 260 259 259 259 259 259 260 262 263 262 260 257 254 251 248 246 244 243 243 244 244 245 246 246 247 246 244 244 245 246 246 245 244 244
324 321 320 314 309 311 316 318 320 326 329 328 325 320 320 324 321 318 315 310 306 305 304 299 292 288 284 278 271 264 259 256 255 254 252 251 253 255 257 258 261 263 265 267 269 271 272 274 275 276 276 277 277 277 276 276 275 275 274 273 271 270 268 268 267 266 266 265 264 264 264 264 265 265 264 262 260 257 253 250 247 246 245 243 243 244 244 245 245 245 244 245 247 249 249 248 246
329 325 326 327 323 325 333 333 331 333 334 332 330 322 322 325 320 316 312 305 301 302 302 297 290 286 280 271 263 257 254 253 252 251 250 252 255 258 261 264 266 268 270 271 272 272 273 275 276 277 278 278 278 278 278 279 279 279 278 278 277 276 276 276 276 276 276 275 273 271 269 268 267 266 266 265 263 262 260 256 254 252 250 248 245 245 244 244 244 244 244 244 246 247 249 251 250
341 339 338 340 335 330 337 343 339 337 337 338 337 326 324 324 319 315 310 303 299 299 297 292 286 280 271 262 255 251 250 249 249 249 251 254 258 261 265 267 269 270 271 272 273 274 274 275 276 277 277 278 279 279 279 279 279 279 280 282 283 284 284 284 283 283 282 281 279 277 275 273 272 271 270 269 267 265 263 261 259 257 254 252 250 248 247 246 245 244 243 244 244 245 246 249 251
351 349 341 339 336 332 335 340 339 338 337 339 338 327 324 322 317 315 310 306 303 300 293 283 276 269 261 255 251 248 247 247 248 250 253 256 259 262 265 267 269 270 272 273 274 275 277 278 280 280 280 280 280 280 279 279 280 281 283 285 287 288 289 289 288 287 286 285 284 282 280 278 278 277 276 274 271 268 266 264 263 261 259 257 254 252 251 250 249 247 246 246 246 245 245 246 249
349 345 339 336 334 333 335 336 336 337 335 334 333 326 322 319 316 316 314 313 312 303 289 276 267 259 253 249 248 247 248 248 249 252 255 257 260 263 265 267 269 271 273 276 277 278 279 280 281 282 283 284 284 284 284 285 287 289 289 289 288 289 289 289 289 289 288 287 285 284 284 283 283 284 283 281 276 273 270 267 265 264 263 261 259 257 255 253 252 250 249 248 249 249 248 247 248
343 340 337 334 332 334 336 335 335 338 336 333 332 329 325 321 321 323 321 320 318 308 289 272 261 254 249 247 247 247 248 250 253 255 258 260 263 266 268 271 273 275 277 280 282 282 282 283 284 285 286 287 288 290 291 293 296 297 296 294 292 290 288 287 287 286 286 286 285 285 285 285 286 289 289 286 282 278 274 271 268 266 265 264 262 261 259 258 256 255 253 252 252 252 251 250 249
343 338 334 332 330 332 336 337 340 341 336 334 334 330 327 325 327 328 325 322 318 309 290 267 255 249 247 246 247 247 249 253 256 260 263 267 271 274 277 280 282 284 287 289 290 290 291 293 294 295 295 296 297 298 299 299 300 300 299 298 296 294 291 288 286 285 284 283 283 283 284 285 288 291 291 288 285 282 278 275 272 270 268 266 264 263 262 261 260 259 258 257 256 254 253 253 252
344 337 333 331 331 332 337 341 344 342 335 333 334 330 327 328 327 327 327 324 317 306 286 264 253 247 245 245 245 247 251 256 261 266 272 277 282 286 288 290 292 294 296 297 298 299 300 300 300 300 300 300 301 302 302 302 302 302 302 301 300 298 295 293 290 288 285 283 282 282 283 285 289 292 291 289 286 283 280 277 274 272 271 269 267 265 264 263 262 261 261 260 259 258 255 254 254
343 340 334 335 338 336 338 344 344 340 332 331 335 331 327 328 327 330 329 323 313 299 277 260 251 247 245 244 245 250 255 263 270 277 283 287 292 296 298 301 303 304 305 305 306 306 307 307 306 305 305 305 304 304 303 303 303 302 302 302 301 300 298 296 294 292 289 287 285 284 285 287 290 291 289 287 284 281 279 277 275 273 272 271 269 268 266 265 264 263 263 262 261 260 258 256 255
346 346 341 341 343 338 336 340 342 338 330 330 335 331 327 329 332 335 330 321 310 291 271 256 248 244 243 243 248 255 264 273 281 288 293 297 301 305 308 309 310 310 310 310 312 312 313 313 313 312 311 311 309 308 307 306 304 303 301 300 299 298 297 296 295 294 293 291 289 289 289 290 290 288 285 282 280 278 276 275 273 272 271 270 269 268 267 267 266 265 265 264 263 262 260 258 257
352 351 346 344 343 340 335 335 340 340 334 332 334 332 331 334 338 335 328 320 307 285 264 250 241 239 241 245 253 264 279 290 297 304 308 310 312 313 313 313 312 312 313 314 315 316 316 316 316 316 315 314 313 312 311 309 308 306 303 300 298 296 295 294 293 292 292 291 290 290 289 288 287 284 280 278 275 274 273 272 271 270 269 268 268 267 266 266 265 265 264 264 263 262 261 260 259
354 352 348 343 340 337 333 334 339 342 342 342 337 333 333 337 337 334 330 320 301 278 259 245 238 239 243 250 265 283 298 308 313 315 317 318 318 318 318 318 318 318 318 318 318 317 317 317 316 316 315 314 313 312 311 310 308 307 305 303 300 298 295 293 291 290 289 288 287 286 286 284 282 280 277 274 272 270 268 267 267 266 266 265 265 265 264 263 263 262 262 262 262 261 261 259 258
352 350 345 341 335 334 335 340 342 340 344 346 341 331 324 333 337 335 332 320 295 275 258 246 241 243 250 264 283 298 309 315 319 320 320 320 321 321 322 322 322 322 321 320 319 318 318 317 316 315 314 313 312 311 310 309 308 307 305 304 303 301 298 295 292 290 288 285 284 282 281 280 279 277 274 271 269 267 264 263 262 261 261 261 261 260 261 261 260 260 260 259 259 259 259 258 257
350 346 341 337 334 335 339 345 344 337 339 343 348 344 310 324 336 336 329 313 285 272 256 249 250 252 262 283 299 310 316 319 321 322 323 324 324 325 325 324 323 321 319 318 317 317 316 315 315 314 312 311 310 309 307 307 306 304 303 303 302 300 298 294 292 290 288 286 284 282 280 278 276 274 272 269 267 264 261 259 257 256 256 256 256 257 257 257 258 258 258 258 257 257 257 256 256
348 344 338 335 337 340 343 347 349 342 340 343 352 347 312 313 331 334 325 301 274 268 258 255 261 270 286 303 312 316 320 322 324 325 326 326 326 325 323 321 319 318 316 315 315 315 314 313 313 312 310 308 307 306 304 304 303 301 300 300 298 297 295 293 291 289 288 287 285 284 282 280 277 274 270 267 265 262 259 257 254 251 251 252 253 253 254 254 255 256 256 256 256 256 256 256 255
346 344 337 335 340 343 344 347 349 345 342 339 342 345 331 313 325 330 325 297 273 270 269 270 281 297 308 316 319 321 324 325 327 327 327 326 324 322 320 318 317 316 315 315 315 315 315 315 314 312 310 309 309 308 307 306 305 304 303 302 300 298 296 293 291 289 288 286 285 284 283 282 280 276 272 267 263 260 257 254 251 247 248 250 251 251 252 252 254 255 255 255 255 255 255 256 255
344 341 335 336 342 344 344 347 347 345 338 327 337 345 341 319 323 328 328 309 285 275 278 288 311 322 323 325 326 327 328 328 328 327 325 324 322 319 317 316 315 315 315 315 316 316 316 315 313 310 310 310 310 309 308 308 308 308 307 305 303 300 298 295 292 290 288 286 284 283 282 282 281 277 273 269 264 259 255 251 247 244 246 249 250 251 251 252 252 253 254 255 255 255 254 255 255
345 341 339 340 344 348 349 344 343 342 323 322 335 337 332 320 323 327 335 329 307 292 298 313 326 329 330 331 332 332 331 329 326 323 320 319 317 315 315 314 314 313 314 314 315 315 314 313 310 308 308 309 308 306 306 306 305 305 304 303 302 300 299 297 295 292 289 286 284 283 282 281 280 277 273 269 265 260 254 249 243 240 245 249 250 251 251 252 252 252 252 253 254 254 254 253 253
345 344 348 347 344 349 355 344 344 349 278 327 331 330 326 303 315 330 334 327 311 312 326 328 330 332 333 333 331 330 327 323 320 317 316 315 315 315 315 316 316 315 315 315 315 314 313 311 309 308 307 306 304 301 301 301 300 300 300 300 300 300 300 300 297 294 291 288 285 283 281 280 278 275 272 268 265 260 255 249 242 239 244 250 252 253 252 252 252 251 251 251 251 252 252 250 250
346 349 356 356 343 344 355 341 343 331 311 327 331 330 320 303 325 330 328 321 309 319 330 334 336 335 333 330 327 324 321 319 318 317 316 317 317 318 318 318 318 318 317 315 315 313 310 307 305 304 303 302 299 298 297 297 298 299 300 300 301 301 301 300 297 295 292 289 286 283 281 278 276 273 271 268 265 261 256 249 243 242 247 251 255 257 256 255 253 251 250 249 249 250 250 249 248
353 356 358 359 342 331 340 325 328 320 317 326 332 334 323 331 331 327 327 325 316 321 333 339 338 335 331 327 324 321 320 320 319 319 319 319 319 320 320 320 318 316 315 313 312 310 308 306 304 303 303 302 300 299 299 299 300 301 301 302 302 301 301 299 297 294 292 290 286 283 280 276 274 271 270 269 266 262 257 251 246 246 250 254 256 256 256 256 254 250 248 247 247 247 247 246 246
354 356 356 355 348 328 300 303 316 312 314 323 333 345 341 334 329 327 332 330 322 330 339 339 334 330 327 324 322 322 323 323 322 322 322 321 321 322 322 320 316 314 313 312 311 309 308 307 306 305 304 303 303 302 302 302 302 302 302 301 301 301 300 298 296 294 291 289 286 282 278 274 272 270 269 268 265 260 255 250 249 250 252 253 254 255 255 253 251 249 248 247 247 246 246 245 245
349 350 355 353 346 325 304 311 317 310 307 321 331 335 335 330 327 332 331 326 332 339 338 333 329 327 325 323 324 325 327 326 325 324 322 322 323 324 324 322 320 319 317 316 314 311 310 308 306 306 305 305 305 305 304 304 303 303 302 302 301 301 300 298 296 293 290 288 284 281 276 273 270 268 267 266 264 259 254 250 249 251 252 253 253 254 254 251 248 247 247 248 248 248 247 247 245
348 350 354 351 346 344 334 326 328 326 310 321 326 323 330 333 332 334 331 332 340 338 332 329 328 327 326 326 327 329 330 327 325 324 324 325 327 327 327 327 328 327 324 322 319 316 314 312 309 309 309 310 309 308 307 306 306 305 304 304 304 302 301 299 297 295 291 287 283 280 276 272 269 266 264 264 263 260 255 253 251 252 253 254 254 253 251 248 245 244 246 247 248 249 248 247 245
351 353 353 352 348 352 351 335 328 334 315 317 327 322 331 341 336 333 336 339 337 332 330 329 328 328 329 330 332 332 329 327 326 327 328 330 331 330 331 331 331 329 326 324 323 321 319 316 314 314 315 315 313 311 311 310 309 308 308 309 309 307 306 303 300 297 293 288 283 279 276 271 268 264 262 261 261 260 258 256 255 255 255 255 256 255 251 246 243 241 243 246 247 247 247 246 245
353 354 353 357 354 335 343 341 321 334 320 311 325 324 331 339 333 333 339 338 333 331 331 330 329 330 332 334 335 331 328 329 331 332 333 334 333 333 332 332 330 327 326 325 325 323 321 318 317 317 316 316 315 314 314 313 312 314 316 319 318 317 315 311 307 302 297 291 286 281 276 271 267 264 261 259 258 259 259 258 258 258 257 257 256 254 249 243 240 240 241 243 244 243 244 244 244
352 354 353 358 358 333 333 333 318 328 314 310 323 323 332 336 332 334 338 336 333 331 330 329 331 333 335 336 333 329 330 333 335 335 336 335 334 333 331 330 327 325 325 325 325 325 324 322 322 321 319 318 317 317 317 319 321 324 327 329 328 327 325 322 318 312 305 299 293 286 279 273 269 266 263 260 258 258 258 258 258 258 258 256 253 249 245 240 238 239 239 239 239 239 240 243 245
351 352 352 353 352 346 339 329 325 327 300 310 323 308 321 331 334 334 335 334 332 331 330 330 333 336 337 336 332 331 335 338 337 337 336 335 333 331 329 326 323 322 322 321 322 324 325 325 326 325 324 324 322 324 327 330 332 333 333 333 333 333 331 329 327 322 316 310 302 296 289 281 275 269 265 262 259 258 257 258 258 257 256 254 250 245 242 238 236 238 238 236 235 235 238 242 245
350 348 350 348 345 346 345 331 329 327 308 305 299 282 313 328 336 333 333 332 330 331 332 333 337 338 337 335 334 337 340 340 339 338 336 333 331 330 327 324 322 321 321 320 321 325 325 327 328 327 328 330 331 334 337 338 338 338 338 337 337 337 335 334 333 331 326 319 312 305 298 290 283 276 271 266 262 259 258 258 257 257 255 251 247 243 240 237 237 238 237 235 233 233 237 241 243